Location: La Fredeussais
(48.1780°N, 1.3980°W)
Time: 03:42:50
(UTC+00:00)

USA 305 - Pass Details

Date: 09 May 2021
Orbit: 567 x 573 km, 54.0° (Epoch: 07 May)

Event Time Altitude Azimuth Distance (km) Brightness Sun altitude
Rises 21:57:47 0° 298° (WNW) 2,775 7.4 -18.6°
Reaches altitude 10° 22:00:02 10° 299° (WNW) 1,876 6.4 -18.8°
Maximum altitude 22:04:19 89° 33° (NNE) 576 2.8 -19.2°
Enters shadow 22:05:35 45° 119° (ESE) 781 3.2 -19.3°
